Regional Weather Roundup
Issued by NWS

Home | Current Version | Previous Version | Graphics & Text | Print | Product List | Glossary On
Versions: 1 2 3 4 5 6 7 8 9 10 11 12 13 14 15 16 17 18 19 20 21 22 23 24 25 26 27 28 29 30 31 32 33 34 35 36 37 38 39 40 41 42 43 44 45 46 47 48 49 50
000
ASUS43 KDMX 270806
RWRIA

WEATHER ROUNDUP FOR IOWA
NATIONAL WEATHER SERVICE DES MOINES IA
300 AM CDT TUE JUN 27 2017

NOTE: "FAIR" INDICATES FEW OR NO CLOUDS BELOW 12,000 FEET WITH NO
SIGNIFICANT WEATHER AND/OR OBSTRUCTIONS TO VISIBILITY.

* - THESE STATIONS ARE NOT NWS STATIONS...THUS NOT UNDER NWS
QUALITY CONTROL.  THEY ALSO DO NOT REPORT WEATHER SUCH
AS PRECIPITATION OR FOG.

IAZ001>003-012>014-020>022-031>034-043>046-270900-
   NORTHWEST IOWA

CITY           SKY/WX    TMP DP  RH WIND       PRES   REMARKS
CARROLL *      CLEAR     48  46  93 CALM      30.15S
CHEROKEE *     CLEAR     45  42  89 CALM      30.14F
DENISON *      CLEAR     48  46  93 CALM      30.16F
LE MARS *      CLEAR     45  43  93 CALM      30.13F
ORANGE CITY *  CLEAR     54  43  66 CALM      30.13F
SHELDON *      CLEAR     48  45  87 SE5       30.12F
SIOUX CITY     CLEAR     49  45  86 SE6       30.13F
SPENCER        CLEAR     47  44  90 CALM      30.14F
STORM LAKE *   CLEAR     52  41  66 SE6       30.15S
$$

IAZ055>058-069>071-079>083-090>094-270900-
   SOUTHWEST IOWA

CITY           SKY/WX    TMP DP  RH WIND       PRES   REMARKS
ATLANTIC *     CLEAR     48  46  93 N5        30.15S
AUDUBON *      CLEAR     46  45  93 CALM      30.16S
CLARINDA *       N/A     52  52 100 CALM      30.17S
COUNCIL BLFS * CLEAR     55  50  82 SE5       30.14S
CRESTON *      CLEAR     52  46  82 SE5       30.17S
HARLAN  *      CLEAR     48  46  93 CALM      30.18S
LAMONI         CLEAR     58  49  72 CALM      30.15S
RED OAK *      CLEAR     52  50  93 CALM      30.15S
SHENANDOAH *   FOG       55  55 100 CALM      30.15S VSB 1/2
$$

IAZ047>049-059>061-072>074-084-270900-
   CENTRAL IOWA

CITY           SKY/WX    TMP DP  RH WIND       PRES   REMARKS
AMES           CLEAR     49  47  93 CALM      30.15S
ANKENY *       PTCLDY    46  45  93 CALM      30.16S
BOONE *        CLEAR     54  43  66 CALM      30.14S
CHARITON *     CLEAR     54  46  76 SE3       30.15S
DES MOINES     CLEAR     56  46  69 CALM      30.15S
GRINNELL*      CLEAR     50  44  80 CALM      30.16S
KNOXVILLE *    CLEAR     52  48  87 S3        30.14S
MARSHALLTOWN   CLEAR     48  46  93 CALM      30.14S
NEWTON *       CLEAR     54  45  71 CALM      30.15S
PELLA *        PTCLDY    49  45  87 CALM      30.16S
PERRY *          N/A     48  46  95 CALM      30.16S
$$

IAZ004>006-015-016-023>025-035-036-270900-
   NORTH CENTRAL IOWA

CITY           SKY/WX    TMP DP  RH WIND       PRES   REMARKS
ALGONA *       CLEAR     50  45  81 SW7       30.14S
CLARION *        N/A     48  45  87 S5        30.15R
ESTHERVILLE    CLEAR     48  44  86 SW5       30.13F
FORT DODGE *   CLEAR     46  41  81 CALM      30.16S
MASON CITY     CLEAR     48  44  86 CALM      30.15S
FOREST CITY *    N/A     45  30  57 CALM      30.14S HAZE
WEBSTER CITY * CLEAR     48  45  87 SW5       30.13S
IOWA FALLS *     N/A     51  44  77 SW5       30.16S
$$

IAZ007>011-017>019-026>030-037>042-050>054-066-270900-
   NORTHEAST IOWA

CITY           SKY/WX    TMP DP  RH WIND       PRES   REMARKS
CEDAR RAPIDS   CLEAR     47  46  97 CALM      30.13S
CHARLES CITY * CLEAR     50  48  93 CALM      30.14S
CLINTON *      PTCLDY    49  46  90 W5        30.14S
DECORAH *      PTCLDY    50  45  81 CALM      30.12S
DUBUQUE        PTCLDY    50  44  80 CALM      30.13S
MONTICELLO *   CLEAR     48  46  93 CALM      30.14R
WATERLOO       CLEAR     49  45  86 CALM      30.13S
$$

IAZ064-065-067-068-078-270900-
   EAST CENTRAL IOWA

CITY           SKY/WX    TMP DP  RH WIND       PRES   REMARKS
DAVENPORT      PTCLDY    48  46  93 CALM      30.14S
IOWA CITY      CLEAR     52  47  83 CALM      30.15S
MT. PLEASANT * CLEAR     49  48  97 CALM      30.15S
MUSCATINE *    CLEAR     50  46  87 CALM      30.14S
QUAD CITIES    CLEAR     49  45  86 CALM      30.13S
$$

IAZ062-063-075>077-085>089-095>099-270900-
   SOUTHEAST IOWA

CITY           SKY/WX    TMP DP  RH WIND       PRES   REMARKS
BURLINGTON     CLEAR     50  50 100 CALM      30.14S
FAIRFIELD *    CLEAR     50  46  87 CALM      30.14S
FORT MADISON * CLEAR     54  52  94 CALM      30.15S
KEOKUK *       CLEAR     52  50  93 CALM      30.14S
OSKALOOSA *      N/A     48  43  81 CALM      30.15S
CENTERVILLE *    N/A     54  46  76 CALM      30.17S
OTTUMWA        CLEAR     48  44  86 S3        30.15R
WASHINGTON *     N/A     48  46  93 SW3       30.16S
$$

ABBREVIATIONS USED IN REMARKS
   TC - TEMPERATURES IN CELSIUS
  WCI - WIND CHILL INDEX
   HX - HEAT INDEX
  VSB - VISIBILITY
$$




USA.gov is the U.S. government's official web portal to all federal, state and local government web resources and services.